GW5357 Weather Reports


Display with metric or nautical units.
time (UTC)temp
F
wind
direction
speed
MPH
gust
MPH
rain 1hr
in
rain 24hr
in
rain mn
in
humidity
%
barometer
mb
20260506195505 53 148 3.0 8.0 0.00 0.00 0.00 85 1020.4
20260506195006 53 135 4.0 8.0 0.00 0.00 0.00 84 1020.3
20260506194005 53 152 2.0 6.0 0.00 0.00 0.00 85 1020.3
20260506193006 53 203 2.0 7.0 0.00 0.00 0.00 85 1020.1
20260506192505 53 135 2.0 7.0 0.00 0.00 0.00 85 1020.0
20260506192005 53 178 3.0 8.0 0.00 0.00 0.00 85 1020.0
20260506191006 53 131 3.0 10.0 0.00 0.00 0.00 85 1019.9
20260506190505 53 128 2.0 7.0 0.00 0.00 0.00 85 1019.8
20260506190006 53 276 3.0 8.0 0.00 0.00 0.00 85 1019.9
20260506185006 53 128 3.0 8.0 0.00 0.00 0.00 86 1019.8
20260506184505 53 148 3.0 10.0 0.00 0.00 0.00 86 1019.8
20260506183504 53 135 3.0 7.0 0.00 0.00 0.00 86 1019.7
20260506183006 53 141 3.0 8.0 0.00 0.00 0.00 86 1019.7
20260506182004 53 211 2.0 8.0 0.00 0.00 0.00 86 1019.6
20260506181505 53 139 2.0 8.0 0.00 0.00 0.00 87 1019.6
20260506181004 53 221 2.0 7.0 0.00 0.00 0.00 87 1019.5
20260506180505 53 318 3.0 8.0 0.00 0.00 0.00 88 1019.6
20260506180006 53 98 3.0 10.0 0.00 0.00 0.00 87 1019.7
20260506175505 53 197 2.0 7.0 0.00 0.00 0.00 88 1019.6
20260506175005 53 163 3.0 7.0 0.00 0.00 0.00 87 1019.6
20260506174506 53 193 3.0 7.0 0.00 0.00 0.00 88 1019.5
20260506174006 53 284 2.0 7.0 0.00 0.00 0.00 88 1019.5
20260506173505 52 178 2.0 6.0 0.00 0.00 0.00 87 1019.3
20260506173007 52 172 2.0 6.0 0.00 0.00 0.00 88 1019.3
20260506172506 52 291 2.0 7.0 0.00 0.00 0.00 88 1019.3
20260506171006 52 213 2.0 8.0 0.00 0.00 0.00 89 1019.2
20260506170505 52 163 3.0 8.0 0.00 0.00 0.00 88 1019.0
20260506170006 52 193 3.0 7.0 0.00 0.00 0.00 88 1019.1
20260506165505 52 124 3.0 8.0 0.00 0.00 0.00 88 1019.2
20260506165007 52 89 2.0 8.0 0.00 0.00 0.00 88 1019.2
20260506164505 52 105 3.0 7.0 0.00 0.00 0.00 88 1019.3
20260506164005 52 155 2.0 7.0 0.00 0.00 0.00 88 1019.2
20260506163504 52 135 2.0 7.0 0.00 0.00 0.00 88 1019.2
20260506163006 52 214 4.0 10.0 0.00 0.00 0.00 88 1019.2
20260506162505 52 155 4.0 10.0 0.00 0.00 0.00 87 1019.3
20260506162005 52 128 3.0 8.0 0.00 0.00 0.00 87 1019.2
20260506161505 52 178 3.0 6.0 0.00 0.00 0.00 87 1019.3
20260506161006 52 89 2.0 7.0 0.00 0.00 0.00 87 1019.3
20260506160505 52 135 3.0 7.0 0.00 0.00 0.00 88 1019.4
20260506155505 52 340 2.0 7.0 0.00 0.00 0.00 88 1019.5
20260506154506 52 163 2.0 6.0 0.00 0.00 0.00 88 1019.3
20260506153504 52 122 3.0 7.0 0.00 0.00 0.00 88 1019.2
20260506153006 52 131 3.0 8.0 0.00 0.00 0.00 87 1019.1
20260506152506 52 169 3.0 10.0 0.00 0.00 0.00 88 1019.0
20260506152005 52 129 4.0 10.0 0.00 0.00 0.00 88 1018.8
20260506151505 52 223 5.0 10.0 0.00 0.00 0.00 88 1018.9
20260506151005 52 152 2.0 9.0 0.00 0.00 0.00 88 1018.8
20260506150505 52 141 5.0 9.0 0.00 0.00 0.00 87 1018.6
20260506150006 52 195 3.0 9.0 0.00 0.00 0.00 87 1018.6
20260506145506 52 135 3.0 10.0 0.00 0.00 0.00 87 1018.6
20260506145005 52 189 3.0 10.0 0.00 0.00 0.00 87 1018.5
20260506144005 52 211 3.0 7.0 0.00 0.00 0.00 87 1018.5
20260506143505 52 108 4.0 8.0 0.00 0.00 0.00 87 1018.4
20260506143006 52 186 3.0 9.0 0.00 0.00 0.00 87 1018.4
20260506142505 52 107 3.0 9.0 0.00 0.00 0.00 87 1018.4
20260506142004 52 127 3.0 9.0 0.00 0.00 0.00 87 1018.5
20260506141504 52 241 3.0 8.0 0.00 0.00 0.00 87 1018.5
20260506140007 52 237 2.0 10.0 0.00 0.00 0.00 87 1018.8
20260506135505 52 89 3.0 10.0 0.00 0.00 0.00 87 1018.5
20260506134505 52 135 3.0 10.0 0.00 0.00 0.00 86 1018.4
20260506134005 52 145 4.0 10.0 0.00 0.00 0.00 86 1018.2
20260506133504 52 112 6.0 10.0 0.00 0.00 0.00 86 1018.2
20260506133004 52 158 5.0 10.0 0.00 0.00 0.00 86 1018.1
20260506132504 52 196 3.0 9.0 0.00 0.00 0.00 86 1017.9
20260506132006 52 117 4.0 11.0 0.00 0.00 0.00 86 1017.9
20260506131504 52 140 6.0 10.0 0.00 0.00 0.00 86 1017.9
20260506131006 52 117 5.0 10.0 0.00 0.00 0.00 86 1017.9
20260506130006 52 178 5.0 13.0 0.00 0.00 0.00 86 1018.0
20260506125504 52 132 4.0 13.0 0.00 0.00 0.00 86 1018.2
20260506125004 52 145 4.0 12.0 0.00 0.00 0.00 86 1018.1
20260506124506 52 124 3.0 12.0 0.00 0.00 0.00 86 1018.0
20260506124005 52 135 4.0 10.0 0.00 0.00 0.00 86 1018.0
20260506123505 52 125 4.0 10.0 0.00 0.00 0.00 86 1018.1
20260506123005 52 132 4.0 10.0 0.00 0.00 0.00 86 1018.1
20260506122505 52 135 3.0 8.0 0.00 0.00 0.00 86 1018.1
20260506121005 52 135 4.0 11.0 0.00 0.00 0.00 86 1018.0
20260506120504 52 135 4.0 11.0 0.00 0.00 0.00 86 1018.0
20260506120006 52 117 3.0 11.0 0.00 0.00 0.00 86 1017.8
20260506115504 52 98 2.0 9.0 0.00 0.00 0.00 86 1017.7
20260506115005 52 178 3.0 12.0 0.00 0.00 0.00 86 1017.7
20260506114505 52 132 4.0 12.0 0.00 0.00 0.00 86 1017.7
20260506114005 52 151 4.0 10.0 0.00 0.00 0.00 86 1017.6
20260506113006 52 121 3.0 9.0 0.00 0.00 0.00 86 1017.6
20260506112504 52 155 3.0 9.0 0.00 0.00 0.00 86 1017.5
20260506111505 52 122 2.0 11.0 0.00 0.00 0.00 86 1017.5
20260506111004 52 145 3.0 11.0 0.00 0.00 0.00 86 1017.6
20260506110504 52 138 3.0 8.0 0.00 0.00 0.00 86 1017.5
20260506110007 52 152 4.0 8.0 0.00 0.00 0.00 86 1017.4
20260506105003 52 112 4.0 10.0 0.00 0.00 0.00 86 1017.2
20260506103505 52 178 3.0 9.0 0.00 0.00 0.00 86 1017.0
20260506103004 52 206 2.0 8.0 0.00 0.00 0.00 86 1017.0
20260506102504 52 135 4.0 9.0 0.00 0.00 0.00 86 1016.9
20260506102006 52 157 5.0 9.0 0.00 0.00 0.00 86 1016.9
20260506101006 53 115 4.0 9.0 0.00 0.00 0.00 86 1016.7
20260506100506 53 89 3.0 7.0 0.00 0.00 0.00 85 1016.6
20260506100005 53 140 3.0 10.0 0.00 0.00 0.00 85 1016.6
20260506095500 53 117 5.0 11.0 0.00 0.00 0.00 85 1016.6
20260506095004 53 130 4.0 11.0 0.00 0.00 0.00 85 1016.5
20260506094504 53 135 4.0 9.0 0.00 0.00 0.00 85 1016.5
20260506094004 53 216 3.0 9.0 0.00 0.00 0.00 85 1016.5
20260506093504 53 131 3.0 10.0 0.00 0.00 0.00 85 1016.5
20260506093005 53 114 3.0 10.0 0.00 0.00 0.00 85 1016.4
20260506092501 53 163 3.0 8.0 0.00 0.00 0.00 85 1016.4
20260506092005 53 135 2.0 8.0 0.00 0.00 0.00 85 1016.3
20260506091504 53 126 3.0 7.0 0.00 0.00 0.00 85 1016.3
20260506091004 53 173 3.0 9.0 0.00 0.00 0.00 85 1016.3
20260506090503 53 157 4.0 9.0 0.00 0.00 0.00 85 1016.3
20260506090006 53 178 2.0 9.0 0.00 0.00 0.00 85 1016.3
20260506085505 53 197 4.0 9.0 0.00 0.00 0.00 84 1016.2
20260506085005 53 152 4.0 9.0 0.00 0.00 0.00 84 1016.2
20260506084506 53 193 2.0 9.0 0.00 0.00 0.00 84 1016.2
20260506084005 54 203 3.0 9.0 0.00 0.00 0.00 84 1016.2
20260506083504 54 110 3.0 12.0 0.00 0.00 0.00 84 1016.2
20260506083006 54 161 5.0 12.0 0.00 0.00 0.00 84 1016.1
20260506082505 54 117 3.0 11.0 0.00 0.00 0.00 84 1016.1
20260506082006 54 128 5.0 11.0 0.00 0.00 0.00 84 1016.1
20260506081506 54 127 3.0 9.0 0.00 0.00 0.00 84 1016.0
20260506081006 54 143 3.0 7.0 0.00 0.00 0.00 84 1016.0
20260506080504 54 161 4.0 7.0 0.00 0.00 0.00 84 1016.0
20260506072506 55 223 2.0 8.0 0.00 0.00 0.00 83 1015.7
20260506072005 55 220 4.0 9.0 0.00 0.00 0.00 83 1015.7
20260506071005 55 124 4.0 8.0 0.00 0.00 0.00 82 1015.7
20260506070505 55 124 4.0 8.0 0.00 0.00 0.00 82 1015.6
20260506061506 56 140 3.0 8.0 0.00 0.00 0.00 81 1015.5
20260506060505 56 100 4.0 12.0 0.00 0.00 0.00 81 1015.5
20260506050506 57 142 4.0 9.0 0.00 0.00 0.00 79 1015.3
20260506044507 57 137 3.0 6.0 0.00 0.00 0.00 79 1015.2
20260506044009 57 178 2.0 7.0 0.00 0.00 0.00 78 1015.0
20260506043505 57 140 2.0 5.0 0.00 0.00 0.00 79 1015.0
20260506043007 57 122 2.0 9.0 0.00 0.00 0.00 79 1014.9
20260506042505 57 145 154.0 655.0 3.31 0.00 0.00 78
20260506041506 58 164 3.0 12.0 0.00 0.00 0.00 78 1014.8
20260506041006 58 119 5.0 12.0 0.00 0.00 0.00 78 1014.8
20260506040505 58 167 3.0 7.0 0.00 0.00 0.00 78 1014.7
20260506035007 58 114 3.0 8.0 0.00 0.00 0.00 77 1014.5
20260506034506 58 142 3.0 8.0 0.00 0.00 0.00 78 1014.4
20260506034005 58 161 4.0 7.0 0.00 0.00 0.00 78 1014.5
20260506033505 58 145 3.0 8.0 0.00 0.00 0.00 78 1014.5
20260506033008 58 234 4.0 8.0 0.00 0.00 0.00 78 1014.4
20260506032506 58 165 4.0 9.0 0.00 0.00 0.00 78 1014.3
20260506032007 58 130 4.0 12.0 0.00 0.00 0.00 78 1014.3
20260506031506 58 125 4.0 12.0 0.00 0.00 0.00 78 1014.2
20260506031006 58 56 4.0 13.0 0.00 0.00 0.00 78 1014.2
20260506030505 58 143 5.0 13.0 0.00 0.00 0.00 78 1014.2
20260506030006 58 128 4.0 10.0 0.00 0.00 0.00 79 1014.1
20260506025004 58 140 4.0 13.0 0.00 0.00 0.00 78 1014.1
20260506024505 58 148 4.0 9.0 0.00 0.00 0.00 78 1014.2
20260506023504 58 124 4.0 9.0 0.00 0.00 0.00 78 1014.1
20260506023005 58 137 4.0 9.0 0.00 0.00 0.00 78 1014.2
20260506022005 59 223 3.0 10.0 0.00 0.00 0.00 78 1014.2
20260506021506 59 139 4.0 8.0 0.00 0.00 0.00 78 1014.2
20260506021005 59 198 3.0 8.0 0.00 0.00 0.00 78 1014.2
20260506020505 59 115 3.0 10.0 0.00 0.00 0.00 78 1014.3
20260506020006 59 120 3.0 10.0 0.00 0.00 0.00 78 1014.3
20260506015005 60 119 3.0 10.0 0.00 0.00 0.00 78 1014.2
20260506014507 60 167 4.0 10.0 0.00 0.00 0.00 77 1014.3
20260506014006 60 110 4.0 10.0 0.00 0.00 0.00 76 1014.2
20260506013504 60 207 4.0 10.0 0.00 0.00 0.00 75 1014.3
20260506013006 61 126 4.0 9.0 0.00 0.00 0.00 75 1014.3
20260506012505 61 186 3.0 8.0 0.00 0.00 0.00 75 1014.2
20260506012006 61 230 3.0 8.0 0.00 0.00 0.00 75 1014.3
20260506011506 62 105 2.0 9.0 0.00 0.00 0.00 75 1014.2
20260506011006 62 135 4.0 10.0 0.00 0.00 0.00 74 1014.2
20260506010506 62 258 3.0 10.0 0.00 0.00 0.00 74 1014.3
20260506005005 62 110 3.0 11.0 0.00 0.00 0.00 73 1014.3
20260506004506 63 146 4.0 9.0 0.00 0.00 0.00 72 1014.3
20260506004005 63 149 3.0 6.0 0.00 0.00 0.00 72 1014.2
20260506003506 63 336 3.0 7.0 0.00 0.00 0.00 74 1014.2
20260506003007 62 223 3.0 7.0 0.00 0.00 0.00 73 1014.3
20260506002505 62 72 3.0 15.0 0.00 0.00 0.00 72 1014.4
20260506002006 62 171 3.0 15.0 0.00 0.00 0.00 73 1014.4
20260506001004 62 135 3.0 9.0 0.00 0.00 0.00 74 1014.5
20260506000505 62 215 3.0 9.0 0.00 0.00 0.00 75 1014.6
20260505235005 61 139 4.0 11.0 0.00 0.00 0.00 76 1014.7
20260505234505 61 127 6.0 11.0 0.00 0.00 0.00 75 1014.8
20260505234005 62 238 5.0 10.0 0.00 0.00 0.00 75 1014.7
20260505233006 62 178 4.0 8.0 0.00 0.00 0.00 75 1014.9
20260505232505 62 223 4.0 11.0 0.00 0.00 0.00 74 1015.0
20260505232006 62 333 3.0 11.0 0.00 0.00 0.00 74 1015.0
20260505231005 62 216 2.0 10.0 0.00 0.00 0.00 74 1015.0
20260505230505 62 296 4.0 11.0 0.00 0.00 0.00 76 1015.1
20260505230006 62 221 3.0 11.0 0.00 0.00 0.00 75 1015.2
20260505225505 61 303 4.0 12.0 0.00 0.00 0.00 77 1015.1
20260505225006 61 274 5.0 14.0 0.00 0.00 0.00 75 1015.3
20260505224506 61 20 5.0 14.0 0.00 0.00 0.00 76 1015.3
20260505224005 61 206 3.0 12.0 0.00 0.00 0.00 76 1015.4
20260505223505 61 150 4.0 9.0 0.00 0.00 0.00 75 1015.5
20260505223007 62 124 4.0 9.0 0.00 0.00 0.00 77 1015.5
20260505222507 61 289 4.0 14.0 0.00 0.00 0.00 76 1015.6
20260505222005 61 277 3.0 14.0 0.00 0.00 0.00 76 1015.5
20260505221506 61 135 3.0 23.0 0.00 0.00 0.00 76 1015.6
20260505220505 61 46 4.0 12.0 0.00 0.00 0.00 76 1015.6
20260505220007 61 245 5.0 12.0 0.00 0.00 0.00 76 1015.6
20260505215506 61 276 4.0 11.0 0.00 0.00 0.00 77 1015.6
20260505215005 61 174 4.0 11.0 0.00 0.00 0.00 75 1015.7
20260505214506 61 28 3.0 11.0 0.00 0.00 0.00 77 1015.6
20260505214006 61 287 4.0 12.0 0.00 0.00 0.00 76 1015.6
20260505213006 61 215 4.0 10.0 0.00 0.00 0.00 76 1015.7
20260505212506 61 199 3.0 11.0 0.00 0.00 0.00 77 1015.7
20260505212006 61 238 5.0 10.0 0.00 0.00 0.00 76 1015.7
20260505211505 61 186 5.0 11.0 0.00 0.00 0.00 77 1015.7
20260505211008 60 299 3.0 11.0 0.00 0.00 0.00 78 1015.7
20260505210507 60 323 4.0 12.0 0.00 0.00 0.00 77 1015.7
20260505210008 61 285 4.0 12.0 0.00 0.00 0.00 77 1015.7
20260505204506 60 247 3.0 11.0 0.00 0.00 0.00 78 1015.8
20260505204005 61 310 5.0 10.0 0.00 0.00 0.00 77 1015.8
20260505203505 61 288 4.0 9.0 0.00 0.00 0.00 77 1015.9
20260505202506 60 248 5.0 12.0 0.00 0.00 0.00 77 1015.8
20260505202005 60 344 3.0 11.0 0.00 0.00 0.00 77 1015.9
20260505201505 60 194 5.0 11.0 0.00 0.00 0.00 78 1015.8
20260505201005 61 252 4.0 10.0 0.00 0.00 0.00 77 1015.8
20260505200005 61 197 3.0 13.0 0.00 0.00 0.00 78 1015.8